Wadena, MN

1:28 AM CDT on August 19, 2017 (GMT -0500)
Wadena Municipal

Weather History for KADC - October, 2013

Change the Weather History Date:

Thursday, October 24, 2013

  Actual Average Record
Temperature  
Mean Temperature 32 °F -  
Max Temperature 39 °F 52 °F 73 °F (1989)
Min Temperature 26 °F 30 °F 12 °F (1936)
Degree Days  
Heating Degree Days 32    
Moisture  
Dew Point 27 °F    
Average Humidity 79    
Maximum Humidity 100    
Minimum Humidity 60    
Precipitation  
Precipitation 0.00 in - - ()
Sea Level Pressure  
Sea Level Pressure 30.21 in    
Wind  
Wind Speed 6 mph (WNW)    
Max Wind Speed 13 mph    
Max Gust Speed 18 mph    
Visibility 10 miles    
Events Snow    
Averages and records for this station are not official NWS values.
T = Trace of Precipitation, MM = Missing Value Source: NWS Daily Summary

Daily Weather History Graph

Daily Weather History Graph

Search for Another Location

Airport or City:

Trip Planner

Search our weather history database for the weather conditions in past years. The results will help you decide how hot, cold, wet, or windy it might be!

Date:

Astronomy

Oct. 24, 2013 Rise Set
Actual Time 7:51 AM CDT 6:18 PM CDT
Civil Twilight 7:20 AM CDT 6:48 PM CDT
Nautical Twilight 6:45 AM CDT 7:24 PM CDT
Astronomical Twilight 6:10 AM CDT 7:58 PM CDT
Moon 10:36 PM CDT (10/24) 1:00 PM CDT (10/24)
Length of Visible Light 11h 28m
Length of Day
10h 26m
Waning Gibbous, 71% of the Moon is Illuminated
Oct 24
Waning Gibbous
Oct 26
Last Quarter
Nov 3
New
Nov 9
First Quarter
Nov 17
Full

Hourly Weather History & Observations

Time (CDT) Temp. Windchill Dew Point Humidity Pressure Visibility Wind Dir Wind Speed Gust Speed Precip Events Conditions
12:15 AM 26.6 °F 21.2 °F 21.2 °F 80% 30.12 in 10.0 mi WNW 4.6 mph - N/A   Overcast
12:35 AM 26.6 °F 20.0 °F 23.0 °F 86% 30.12 in 10.0 mi WNW 5.8 mph - N/A   Overcast
12:52 AM 26.6 °F 20.0 °F 24.8 °F 93% 30.12 in 10.0 mi WNW 5.8 mph - N/A   Overcast
1:15 AM 28.4 °F 23.3 °F 24.8 °F 86% 30.12 in 10.0 mi WNW 4.6 mph - N/A   Overcast
1:35 AM 28.4 °F 22.2 °F 26.6 °F 93% 30.12 in 10.0 mi WNW 5.8 mph - N/A   Overcast
1:52 AM 28.4 °F 22.2 °F 26.6 °F 93% 30.13 in 10.0 mi WNW 5.8 mph - N/A   Overcast
2:15 AM 28.4 °F 22.2 °F 26.6 °F 93% 30.13 in 10.0 mi WNW 5.8 mph - N/A Snow Light Snow
2:35 AM 30.2 °F 24.3 °F 26.6 °F 86% 30.13 in 10.0 mi West 5.8 mph - N/A   Overcast
2:52 AM 28.4 °F 22.2 °F 26.6 °F 93% 30.13 in 10.0 mi West 5.8 mph - N/A   Mostly Cloudy
3:14 AM 28.4 °F 22.2 °F 26.6 °F 93% 30.14 in 10.0 mi WNW 5.8 mph - N/A   Clear
3:35 AM 28.4 °F 22.2 °F 26.6 °F 93% 30.14 in 10.0 mi WNW 5.8 mph - N/A   Clear
3:53 AM 28.4 °F 23.3 °F 26.6 °F 93% 30.14 in 10.0 mi West 4.6 mph - N/A   Clear
4:15 AM 28.4 °F 24.6 °F 26.6 °F 93% 30.15 in 10.0 mi West 3.5 mph - N/A   Mostly Cloudy
4:35 AM 28.4 °F 22.2 °F 26.6 °F 93% 30.15 in 10.0 mi West 5.8 mph - N/A   Overcast
4:53 AM 28.4 °F 21.2 °F 28.4 °F 100% 30.15 in 10.0 mi WNW 6.9 mph - N/A   Overcast
5:15 AM 30.2 °F 23.4 °F 28.4 °F 93% 30.15 in 10.0 mi WNW 6.9 mph - N/A   Overcast
5:34 AM 30.2 °F 23.4 °F 26.6 °F 86% 30.16 in 10.0 mi West 6.9 mph - N/A   Overcast
5:53 AM 30.2 °F 22.6 °F 26.6 °F 86% 30.17 in 10.0 mi WNW 8.1 mph - N/A   Overcast
6:15 AM 30.2 °F 25.4 °F 26.6 °F 86% 30.17 in 10.0 mi WNW 4.6 mph - N/A   Overcast
6:35 AM 30.2 °F 25.4 °F 26.6 °F 86% 30.18 in 10.0 mi WNW 4.6 mph - N/A   Overcast
6:52 AM 30.2 °F 25.4 °F 26.6 °F 86% 30.18 in 10.0 mi West 4.6 mph - N/A   Overcast
7:15 AM 30.2 °F 24.3 °F 28.4 °F 93% 30.18 in 10.0 mi West 5.8 mph - N/A   Overcast
7:35 AM 30.2 °F 24.3 °F 28.4 °F 93% 30.18 in 10.0 mi West 5.8 mph - N/A   Mostly Cloudy
7:52 AM 30.2 °F 26.7 °F 28.4 °F 93% 30.19 in 10.0 mi West 3.5 mph - N/A   Mostly Cloudy
8:15 AM 30.2 °F 25.4 °F 28.4 °F 93% 30.19 in 10.0 mi WNW 4.6 mph - N/A   Overcast
8:35 AM 32.0 °F 23.6 °F 28.4 °F 87% 30.20 in 10.0 mi NW 10.4 mph - N/A   Overcast
8:52 AM 32.0 °F 24.8 °F 28.4 °F 87% 30.20 in 10.0 mi WNW 8.1 mph - N/A   Mostly Cloudy
9:15 AM 33.8 °F 25.3 °F 30.2 °F 87% 30.20 in 10.0 mi NW 11.5 mph - N/A   Scattered Clouds
9:34 AM 33.8 °F 26.4 °F 28.4 °F 81% 30.21 in 10.0 mi NW 9.2 mph - N/A   Overcast
9:53 AM 33.8 °F 27.0 °F 30.2 °F 87% 30.22 in 10.0 mi NW 8.1 mph - N/A   Overcast
10:15 AM 33.8 °F 26.4 °F 28.4 °F 81% 30.22 in 10.0 mi NW 9.2 mph - N/A   Overcast
10:34 AM 35.6 °F 28.0 °F 30.2 °F 81% 30.23 in 10.0 mi WNW 10.4 mph - N/A   Overcast
10:53 AM 35.6 °F 28.0 °F 28.4 °F 75% 30.23 in 10.0 mi West 10.4 mph - N/A   Overcast
11:15 AM 35.6 °F 29.2 °F 28.4 °F 75% 30.23 in 10.0 mi WNW 8.1 mph - N/A   Overcast
11:35 AM 35.6 °F 29.2 °F 28.4 °F 75% 30.23 in 10.0 mi WNW 8.1 mph 17.3 mph N/A   Overcast
11:52 AM 37.4 °F 30.3 °F 28.4 °F 70% 30.24 in 10.0 mi NW 10.4 mph - N/A   Overcast
12:15 PM 37.4 °F 29.8 °F 28.4 °F 70% 30.23 in 10.0 mi NW 11.5 mph 17.3 mph N/A   Overcast
12:35 PM 35.6 °F 27.5 °F 28.4 °F 75% 30.24 in 10.0 mi NW 11.5 mph 18.4 mph N/A   Overcast
12:52 PM 35.6 °F 27.5 °F 28.4 °F 75% 30.24 in 10.0 mi NNW 11.5 mph - N/A   Overcast
1:15 PM 35.6 °F 27.1 °F 28.4 °F 75% 30.23 in 10.0 mi NW 12.7 mph - N/A   Overcast
1:35 PM 37.4 °F 30.8 °F 28.4 °F 70% 30.23 in 10.0 mi WNW 9.2 mph - N/A   Overcast
1:53 PM 37.4 °F 30.3 °F 28.4 °F 70% 30.23 in 10.0 mi WNW 10.4 mph 16.1 mph N/A   Overcast
2:14 PM 37.4 °F 31.4 °F 28.4 °F 70% 30.23 in 10.0 mi WNW 8.1 mph - N/A   Overcast
2:34 PM 39.2 °F 33.6 °F 28.4 °F 65% 30.23 in 10.0 mi West 8.1 mph - N/A   Overcast
2:53 PM 37.4 °F 29.3 °F 26.6 °F 65% 30.23 in 10.0 mi NW 12.7 mph 16.1 mph N/A   Overcast
3:15 PM 35.6 °F 28.0 °F 26.6 °F 70% 30.24 in 10.0 mi WNW 10.4 mph 17.3 mph N/A   Overcast
3:35 PM 37.4 °F 30.8 °F 26.6 °F 65% 30.24 in 10.0 mi WNW 9.2 mph - N/A   Overcast
3:53 PM 37.4 °F 30.8 °F 24.8 °F 60% 30.24 in 10.0 mi NW 9.2 mph - N/A   Overcast
4:15 PM 37.4 °F 29.8 °F 26.6 °F 65% 30.24 in 10.0 mi WNW 11.5 mph 16.1 mph N/A   Overcast
4:35 PM 37.4 °F 30.8 °F 26.6 °F 65% 30.24 in 10.0 mi NW 9.2 mph - N/A   Overcast
4:53 PM 37.4 °F 32.8 °F 26.6 °F 65% 30.24 in 10.0 mi WNW 5.8 mph - N/A   Overcast
5:14 PM 35.6 °F 29.2 °F 26.6 °F 70% 30.25 in 10.0 mi WNW 8.1 mph - N/A   Overcast
5:34 PM 35.6 °F 29.9 °F 26.6 °F 70% 30.25 in 10.0 mi WNW 6.9 mph - N/A   Overcast
5:53 PM 35.6 °F 28.6 °F 26.6 °F 70% 30.25 in 10.0 mi NW 9.2 mph - N/A   Overcast
6:15 PM 35.6 °F 31.7 °F 26.6 °F 70% 30.25 in 10.0 mi WNW 4.6 mph - N/A   Overcast
6:34 PM 35.6 °F 32.8 °F 26.6 °F 70% 30.25 in 10.0 mi NW 3.5 mph - N/A   Overcast
6:53 PM 35.6 °F 31.7 °F 26.6 °F 70% 30.26 in 10.0 mi WNW 4.6 mph - N/A   Overcast
7:15 PM 35.6 °F 32.8 °F 26.6 °F 70% 30.26 in 10.0 mi WNW 3.5 mph - N/A   Overcast
7:34 PM 35.6 °F 32.8 °F 26.6 °F 70% 30.26 in 10.0 mi WNW 3.5 mph - N/A   Overcast
7:53 PM 35.6 °F 32.8 °F 26.6 °F 70% 30.26 in 10.0 mi WNW 3.5 mph - N/A   Overcast
8:15 PM 35.6 °F 32.8 °F 28.4 °F 75% 30.26 in 10.0 mi West 3.5 mph - N/A   Overcast
8:34 PM 35.6 °F 32.8 °F 28.4 °F 75% 30.26 in 10.0 mi West 3.5 mph - N/A   Overcast
8:52 PM 35.6 °F - 28.4 °F 75% 30.26 in 10.0 mi Calm Calm - N/A   Overcast
9:14 PM 33.8 °F 29.6 °F 26.6 °F 75% 30.26 in 10.0 mi WNW 4.6 mph - N/A   Overcast
9:35 PM 33.8 °F 29.6 °F 26.6 °F 75% 30.27 in 10.0 mi NW 4.6 mph - N/A   Overcast
9:53 PM 33.8 °F 30.8 °F 26.6 °F 75% 30.27 in 10.0 mi NW 3.5 mph - N/A   Overcast
10:15 PM 33.8 °F - 26.6 °F 75% 30.27 in 10.0 mi Calm Calm - N/A   Overcast
10:35 PM 33.8 °F - 26.6 °F 75% 30.27 in 10.0 mi Calm Calm - N/A   Overcast
10:53 PM 33.8 °F - 26.6 °F 75% 30.27 in 10.0 mi Calm Calm - N/A   Overcast
11:15 PM 33.8 °F - 26.6 °F 75% 30.27 in 10.0 mi Calm Calm - N/A   Overcast
11:34 PM 32.0 °F - 26.6 °F 80% 30.27 in 10.0 mi Calm Calm - N/A   Overcast
11:53 PM 30.2 °F - 26.6 °F 86% 30.27 in 10.0 mi Calm Calm - N/A   Overcast